Precipitable_Water
1.38 1.37 1.24 1.04 1.12 1.24 1.29 1.31 1.35 1.45 1.54 1.46 1.49 1.50 1.48 1.43 1.40 1.28 1.28 1.29 1.33 1.37 1.38 1.26 1.09 1.19 1.16 1.22 1.22 1.26 1.24 1.17 1.02 1.16 1.27 1.36 1.35 1.33 1.42 1.53 1.61 1.65 1.58
1.40 1.44 1.37 1.24 1.05 1.09 1.16 1.24 1.30 1.37 1.48 1.50 1.48 1.49 1.49 1.44 1.40 1.27 1.14 1.22 1.24 1.29 1.29 1.28 1.16 1.15 1.14 1.22 1.20 1.15 1.19 1.27 1.18 1.05 1.20 1.23 1.23 1.37 1.43 1.45 1.57 1.53 1.48
1.37 1.38 1.42 1.38 1.21 1.02 1.04 1.12 1.21 1.29 1.41 1.49 1.47 1.42 1.44 1.44 1.40 1.32 1.21 1.12 1.14 1.29 1.43 1.37 1.31 1.30 1.24 1.24 1.24 1.27 1.32 1.37 1.36 1.25 1.19 1.29 1.26 1.34 1.30 1.44 1.34 1.33 1.49
1.57 1.49 1.38 1.37 1.36 1.22 1.08 1.06 1.10 1.18 1.22 1.31 1.38 1.41 1.39 1.38 1.39 1.38 1.28 1.16 1.14 1.14 1.18 1.27 1.36 1.36 1.24 1.26 1.28 1.28 1.34 1.33 1.30 1.19 1.14 1.11 1.14 1.29 1.37 1.13 1.10 1.32 1.31
1.69 1.64 1.56 1.46 1.44 1.45 1.32 1.16 1.05 1.07 1.14 1.20 1.20 1.33 1.42 1.40 1.34 1.30 1.28 1.19 1.13 1.10 1.13 1.15 1.20 1.31 1.35 1.38 1.34 1.28 1.29 1.24 1.19 1.12 1.08 1.10 1.10 1.00 0.98 1.11 1.14 1.29 1.39
1.78 1.70 1.73 1.67 1.50 1.38 1.39 1.37 1.28 1.05 1.04 1.08 1.13 1.14 1.25 1.32 1.32 1.30 1.27 1.19 1.16 1.13 1.04 1.05 1.12 1.15 1.17 1.22 1.30 1.33 1.31 1.18 1.07 1.06 1.04 0.97 0.92 1.00 1.09 1.15 1.26 1.25 1.16
1.83 1.80 1.75 1.74 1.60 1.47 1.42 1.39 1.35 1.29 1.17 1.07 1.07 1.11 1.16 1.23 1.26 1.24 1.26 1.23 1.18 1.16 1.12 1.08 1.05 1.06 1.09 1.11 1.11 1.14 1.18 1.24 1.26 1.17 1.02 0.97 1.01 1.08 1.20 1.27 1.36 1.35 1.35
1.88 1.87 1.90 1.82 1.78 1.68 1.52 1.35 1.32 1.37 1.32 1.22 1.17 1.12 1.13 1.18 1.21 1.19 1.21 1.25 1.21 1.19 1.18 1.14 1.09 1.05 1.06 1.05 1.04 1.00 1.00 1.02 1.08 1.17 1.18 1.14 1.26 1.28 1.42 1.53 1.49 1.53 1.55
1.82 1.85 1.98 2.05 1.92 1.84 1.71 1.54 1.40 1.31 1.29 1.30 1.28 1.29 1.23 1.19 1.24 1.19 1.16 1.18 1.19 1.17 1.20 1.20 1.19 1.14 1.13 1.15 1.11 1.00 0.97 0.95 1.08 1.13 1.20 1.28 1.32 1.45 1.59 1.55 1.54 1.45 1.30
1.78 1.92 1.98 2.01 2.11 1.95 1.85 1.77 1.70 1.52 1.33 1.29 1.27 1.31 1.30 1.26 1.33 1.30 1.25 1.20 1.13 1.14 1.19 1.19 1.19 1.20 1.20 1.20 1.16 1.06 0.95 0.89 0.99 1.03 1.13 1.28 1.38 1.51 1.70 1.82 1.74 1.41 1.40
1.75 1.82 1.91 1.96 2.00 1.98 1.91 1.94 1.87 1.71 1.59 1.45 1.34 1.27 1.26 1.29 1.28 1.30 1.30 1.25 1.15 1.08 1.09 1.08 1.12 1.18 1.19 1.20 1.18 1.12 1.02 1.05 1.06 1.10 1.21 1.34 1.47 1.64 1.77 1.89 1.73 1.59 1.48
1.50 1.51 1.77 1.92 2.06 2.02 1.92 1.90 1.91 1.80 1.67 1.55 1.47 1.39 1.36 1.30 1.27 1.28 1.28 1.28 1.23 1.14 1.05 1.08 1.12 1.16 1.17 1.20 1.23 1.19 1.19 1.15 1.13 1.15 1.27 1.32 1.40 1.56 1.76 1.73 1.74 1.79 1.90
1.68 1.62 1.67 1.88 2.12 2.03 1.92 1.83 1.82 1.76 1.64 1.60 1.51 1.43 1.34 1.38 1.37 1.31 1.26 1.25 1.24 1.24 1.20 1.18 1.19 1.24 1.26 1.27 1.26 1.23 1.21 1.16 1.17 1.25 1.24 1.26 1.43 1.65 1.74 1.69 1.78 1.88 1.96
1.46 1.61 1.62 1.78 2.05 2.03 1.98 1.90 1.83 1.75 1.63 1.64 1.58 1.47 1.44 1.48 1.45 1.39 1.31 1.30 1.29 1.32 1.33 1.33 1.31 1.33 1.36 1.35 1.30 1.26 1.22 1.23 1.25 1.21 1.20 1.32 1.50 1.65 1.63 1.68 1.61 1.83 1.80
1.30 1.43 1.57 1.78 1.91 2.05 2.00 1.89 1.84 1.84 1.80 1.72 1.69 1.71 1.63 1.49 1.52 1.64 1.59 1.40 1.33 1.33 1.40 1.45 1.36 1.33 1.29 1.26 1.25 1.24 1.24 1.29 1.24 1.25 1.23 1.32 1.50 1.66 1.62 1.73 1.78 1.76 1.59
1.14 1.32 1.53 1.58 1.69 1.80 1.93 1.88 1.88 1.85 1.97 1.91 1.87 1.85 1.84 1.86 1.85 1.80 1.75 1.69 1.57 1.59 1.51 1.41 1.34 1.33 1.25 1.20 1.17 1.18 1.31 1.32 1.28 1.27 1.34 1.50 1.65 1.76 1.62 1.73 1.82 1.73 1.53
1.08 1.17 1.28 1.48 1.57 1.72 1.74 1.68 1.69 1.85 2.00 1.94 1.90 1.89 1.89 1.89 1.97 1.94 1.89 1.83 1.76 1.66 1.46 1.43 1.36 1.31 1.26 1.37 1.46 1.48 1.43 1.48 1.58 1.59 1.67 1.74 1.87 1.79 1.74 1.77 1.76 1.70 1.57
1.11 1.17 1.20 1.31 1.54 1.64 1.71 1.77 1.80 1.75 1.72 1.78 1.94 1.91 1.90 1.94 1.97 1.99 2.03 1.95 1.71 1.63 1.54 1.44 1.34 1.28 1.39 1.50 1.61 1.67 1.75 1.85 1.89 1.91 1.90 1.92 2.01 1.91 1.88 1.87 1.79 1.67 1.59
1.13 1.12 1.16 1.25 1.43 1.58 1.76 1.83 1.83 1.89 1.80 1.80 1.82 1.84 1.86 1.90 2.10 2.00 2.00 1.85 1.67 1.56 1.59 1.54 1.52 1.53 1.54 1.65 1.71 1.75 1.82 1.88 2.00 1.92 1.90 1.85 1.96 2.01 2.06 2.14 2.00 1.81 1.59
1.15 1.13 1.08 1.13 1.32 1.48 1.56 1.66 1.75 1.77 1.78 1.82 1.75 1.71 1.79 1.81 1.87 1.96 2.02 1.93 1.78 1.62 1.54 1.45 1.58 1.69 1.77 1.77 1.74 1.75 1.75 1.72 1.75 1.71 1.70 1.70 1.65 1.68 1.57 2.00 1.97 1.60 1.41
1.15 1.16 1.10 1.08 1.16 1.33 1.43 1.53 1.69 1.76 1.80 1.79 1.82 1.91 1.92 1.85 1.82 1.86 1.87 1.94 1.78 1.68 1.65 1.69 1.71 1.78 1.77 1.80 1.81 1.74 1.66 1.63 1.69 1.68 1.66 1.59 1.56 1.47 1.63 1.92 1.67 1.54 1.47
1.15 1.17 1.15 1.10 1.17 1.22 1.27 1.33 1.46 1.67 1.73 1.73 1.74 1.84 2.03 2.06 2.07 1.97 1.85 1.85 1.69 1.69 1.75 1.77 1.78 1.79 1.71 1.64 1.69 1.71 1.67 1.68 1.71 1.67 1.62 1.65 1.60 1.71 1.91 1.82 1.67 1.52 1.44
1.08 1.15 1.15 1.19 1.18 1.21 1.22 1.26 1.37 1.41 1.57 1.66 1.70 1.73 1.82 1.91 1.91 1.86 1.76 1.66 1.66 1.68 1.69 1.71 1.71 1.68 1.68 1.65 1.61 1.58 1.59 1.62 1.67 1.69 1.64 1.72 1.99 1.84 1.79 1.69 1.58 1.46 1.36
1.02 1.12 1.13 1.16 1.19 1.17 1.20 1.23 1.21 1.29 1.33 1.37 1.46 1.55 1.64 1.69 1.68 1.66 1.64 1.60 1.61 1.67 1.68 1.68 1.71 1.70 1.73 1.71 1.70 1.67 1.64 1.65 1.70 1.74 1.77 1.74 1.67 1.66 1.63 1.51 1.40 1.41 1.38
0.96 1.10 1.05 1.11 1.19 1.22 1.17 1.21 1.21 1.27 1.31 1.32 1.40 1.48 1.44 1.48 1.60 1.62 1.59 1.60 1.63 1.66 1.66 1.62 1.63 1.62 1.62 1.62 1.63 1.68 1.75 1.73 1.77 1.73 1.66 1.64 1.64 1.60 1.45 1.39 1.25 1.16 1.17
1.00 1.05 1.06 1.08 1.13 1.14 1.17 1.19 1.24 1.28 1.42 1.40 1.45 1.49 1.55 1.51 1.54 1.60 1.66 1.62 1.64 1.62 1.64 1.63 1.61 1.57 1.55 1.57 1.61 1.66 1.59 1.59 1.64 1.64 1.60 1.54 1.46 1.38 1.29 1.20 1.17 1.13 1.11
Wind_Speed
31 30 30 31 30 29 28 26 23 21 20 18 16 16 15 12 9 9 8 7 7 7 7 7 9 11 10 9 8 8 7 8 7 6 5 5 5 6 8 9 9 11 13
33 32 31 32 32 31 30 29 26 24 22 21 19 17 17 15 12 11 10 9 9 9 8 7 9 10 10 11 10 9 9 8 7 7 7 6 6 7 8 10 10 12 13
31 32 33 32 33 33 32 31 30 28 25 23 22 20 19 18 16 14 12 11 11 11 10 10 10 11 11 11 12 12 11 10 9 9 9 9 9 10 11 10 11 12 16
30 31 32 33 33 34 34 34 32 31 29 26 24 24 22 21 19 17 15 14 13 13 12 13 13 12 13 14 14 14 14 13 13 12 12 12 12 12 12 11 13 16 19
32 31 32 32 34 34 34 35 35 34 32 30 28 26 25 24 22 21 19 17 16 15 15 15 15 15 15 16 17 17 16 16 16 15 14 14 14 13 13 14 16 18 19
33 32 32 32 33 35 34 34 35 36 35 33 32 30 29 26 25 23 21 20 19 18 17 17 17 17 17 18 19 19 19 19 18 17 16 16 15 14 15 15 16 17 19
31 32 31 31 31 33 34 35 35 35 36 36 34 33 31 30 28 27 25 23 22 21 20 19 19 19 18 18 19 20 20 21 21 20 19 18 17 17 17 17 18 19 20
29 30 31 31 31 30 32 34 34 34 35 35 35 35 34 32 31 29 28 26 25 24 23 21 21 20 20 19 19 20 21 21 21 21 21 21 20 20 19 20 21 21 21
29 27 26 31 31 30 31 32 32 33 34 34 35 35 35 33 32 31 30 29 27 26 25 24 23 22 22 21 21 22 22 22 22 22 22 22 22 22 22 21 21 20 20
30 28 27 26 31 33 32 32 31 31 32 33 34 35 35 34 33 32 31 30 29 28 27 26 26 25 24 24 24 24 24 24 23 23 23 22 23 22 22 22 22 21 21
35 34 31 28 30 33 34 33 32 31 31 31 32 33 33 34 33 33 32 31 30 29 29 27 27 27 27 26 26 26 26 25 24 24 23 22 21 21 21 21 21 22 21
28 30 32 30 29 32 33 34 33 32 31 31 31 31 32 32 33 33 33 33 32 31 30 29 28 28 27 27 27 27 28 27 26 25 24 23 23 23 23 22 22 21 21
26 33 32 31 29 33 32 32 32 32 32 31 31 30 30 31 32 33 33 33 33 32 31 30 29 29 28 28 27 27 26 26 26 26 25 25 25 25 24 23 21 21 21
29 31 30 30 29 32 34 32 32 31 31 30 30 29 29 29 30 31 32 33 34 33 33 32 31 30 30 29 28 28 27 27 27 27 27 27 26 25 24 22 22 21 21
27 31 32 32 33 33 34 34 34 34 33 32 31 31 29 29 30 30 30 30 32 33 33 33 31 31 31 30 30 30 29 29 29 29 29 28 27 26 25 24 23 23 23
29 30 31 30 31 34 33 33 34 33 34 34 34 33 32 31 30 30 31 31 31 32 32 32 32 32 31 32 33 33 33 33 32 32 31 30 29 28 27 26 25 25 24
28 29 31 33 32 32 36 36 36 34 33 34 34 35 34 33 33 31 31 31 32 32 32 32 32 32 32 32 32 33 33 33 33 32 32 31 30 29 28 27 26 25 25
33 33 32 34 35 35 36 38 37 37 36 34 34 34 34 35 34 33 32 31 31 33 33 32 33 32 32 32 33 32 31 30 30 30 30 31 31 31 30 29 27 26 26
35 35 34 34 35 36 37 37 38 37 36 35 35 35 35 34 35 33 33 33 32 33 34 34 34 34 33 32 32 33 33 31 30 30 30 32 33 32 30 31 30 27 26
36 34 34 33 34 35 36 37 39 38 38 37 36 36 35 34 34 34 33 31 30 31 32 33 33 34 33 32 31 31 30 30 30 32 34 34 36 42 47 40 29 26 24
37 35 33 34 34 34 35 37 39 40 39 38 38 37 37 36 36 35 34 33 31 30 30 30 32 33 33 33 34 34 35 36 37 37 35 40 45 43 36 27 25 25 23
36 35 33 32 31 31 34 36 37 38 39 40 39 38 37 36 35 33 32 31 30 30 31 31 31 32 34 34 34 34 36 37 39 41 38 38 37 33 28 26 24 23 23
34 35 34 32 32 32 31 31 33 34 36 36 37 37 36 34 33 33 33 31 30 30 28 29 30 32 33 33 33 33 33 32 31 31 32 31 26 23 24 24 24 24 25
31 32 31 28 29 29 28 29 29 29 33 35 34 34 35 35 35 34 33 34 34 32 31 31 31 30 31 32 32 32 31 30 29 26 26 24 25 25 24 24 24 26 27
28 30 30 29 23 24 25 26 28 28 30 30 32 32 34 32 31 31 32 31 30 33 32 31 30 30 29 30 30 30 29 28 28 27 25 24 24 24 25 26 27 28 29
24 29 29 29 27 23 20 20 16 19 22 26 27 30 27 26 27 27 27 30 30 26 29 28 28 28 30 31 31 30 30 30 28 27 26 26 26 26 27 28 29 30 30
Wind_Direction
214 215 215 215 215 216 216 216 214 214 215 215 215 215 213 212 212 210 210 209 208 206 207 207 211 213 214 214 213 210 205 205 211 223 241 268 287 305 315 318 323 326 329
216 216 217 218 217 218 218 219 218 218 218 218 220 219 216 217 218 218 219 219 219 218 216 216 216 213 219 218 218 216 215 214 219 235 248 266 282 298 307 313 317 323 329
216 217 218 219 219 220 220 221 221 221 222 222 224 223 220 221 222 224 226 227 229 229 230 230 228 225 225 222 220 223 226 229 234 241 254 268 281 292 301 303 310 318 324
217 217 218 220 221 222 222 223 223 224 224 226 225 225 225 226 227 228 231 233 235 238 238 237 235 234 232 231 231 232 235 239 244 251 259 268 279 288 294 299 305 314 321
218 220 220 222 222 223 224 224 225 226 227 227 228 228 228 229 230 231 234 237 240 242 243 242 241 240 240 240 239 240 242 244 248 253 260 267 274 282 287 296 302 311 318
220 222 222 222 223 224 225 226 227 227 228 229 229 230 230 231 232 233 236 239 241 244 246 246 245 244 245 245 244 244 245 248 250 253 258 264 270 276 286 293 300 308 315
221 222 223 221 222 224 225 226 227 228 229 229 230 231 232 233 234 236 237 240 242 244 247 248 247 247 247 249 248 247 248 249 250 254 256 261 267 275 283 290 297 302 308
223 223 224 223 223 223 224 225 227 228 229 230 231 232 233 234 235 236 238 241 243 245 246 247 247 248 249 250 252 251 251 250 250 252 255 261 266 274 279 286 294 299 304
222 222 224 225 225 224 223 224 226 228 229 230 231 232 233 235 235 236 238 240 243 244 246 247 247 249 251 252 254 254 253 252 252 253 256 261 267 270 277 285 290 294 301
219 222 229 234 230 227 226 224 226 227 229 231 232 233 233 235 235 237 238 240 242 244 246 247 247 249 252 253 254 254 252 252 253 255 258 262 266 271 276 279 285 290 295
231 227 234 237 236 229 228 227 226 228 230 231 232 233 234 235 236 236 237 238 241 244 245 247 248 250 252 254 255 253 249 253 253 254 257 261 264 270 276 280 284 288 291
236 223 232 236 237 227 226 227 227 228 230 232 233 234 235 236 237 237 238 239 241 243 244 247 249 250 252 254 254 252 250 252 251 251 253 257 264 270 275 279 283 285 289
237 232 234 237 235 227 225 226 228 228 230 232 234 235 236 236 238 238 238 239 241 242 244 247 248 250 251 253 251 250 249 247 247 249 253 258 264 271 275 277 278 285 288
239 233 234 233 239 231 226 227 228 227 228 230 232 233 235 236 238 239 240 240 241 243 245 247 249 250 250 251 250 248 247 246 247 249 255 261 266 269 270 270 276 280 288
246 236 233 238 238 231 228 228 230 231 230 231 233 234 235 238 238 239 240 241 241 243 244 246 248 249 249 249 248 247 246 247 249 252 256 261 264 265 265 268 272 278 286
239 230 235 242 240 236 234 233 232 233 234 234 235 235 237 240 241 241 242 243 243 243 243 245 247 248 249 249 248 248 249 250 252 254 257 259 261 261 262 266 270 277 283
240 238 240 240 240 239 235 233 233 235 235 236 236 237 238 240 241 243 243 244 244 243 244 246 247 248 248 249 249 249 251 252 253 254 255 257 258 259 260 264 270 275 280
245 244 244 244 242 240 237 234 233 233 234 237 239 239 240 241 241 242 243 244 245 245 245 246 248 247 248 250 249 248 250 252 251 252 255 257 259 257 259 261 265 271 278
244 246 246 244 242 238 236 234 233 234 236 238 240 242 241 241 240 240 241 245 246 246 246 248 248 247 249 249 248 249 250 252 252 253 256 261 261 261 265 265 266 270 274
243 244 244 243 241 238 237 237 236 237 238 239 240 241 240 239 238 239 240 242 245 247 248 248 249 248 247 247 247 249 249 251 254 261 263 266 268 267 265 270 267 270 270
239 240 243 242 239 238 238 239 239 238 238 239 241 241 240 239 238 238 240 244 247 249 249 250 249 248 247 247 249 251 254 256 260 263 268 272 271 271 270 263 263 264 269
235 236 236 237 239 239 240 241 241 240 240 239 240 240 240 239 238 238 240 242 246 248 249 250 248 248 249 251 254 256 259 264 268 267 272 276 267 264 259 261 260 265 268
234 232 234 240 242 242 240 240 239 242 241 237 237 238 237 235 237 237 238 242 246 246 248 249 253 250 251 252 255 258 262 265 268 270 269 267 258 248 259 261 263 264 266
231 228 232 237 238 237 237 240 240 241 239 238 237 235 234 238 240 239 241 245 244 244 244 253 254 251 252 255 256 259 262 263 265 266 265 258 255 257 259 260 262 265 268
228 226 227 228 231 233 235 237 241 239 237 240 234 234 235 235 236 238 241 244 243 243 248 250 249 252 254 256 257 259 259 261 261 262 258 258 255 258 260 263 266 267 270
222 221 222 223 226 229 230 223 220 226 229 232 235 230 226 229 232 238 238 249 242 245 241 248 249 252 256 254 257 254 260 264 264 255 255 259 261 262 263 266 268 270 273